Cloud_Cover
0 0 0 0 0 0 0 0 0 0 0 0 0 0 0 0 0 0 0 0 0 0 0 0 0 0 0 0 11 46 5 53 6 2 0 0 0 0 0 0 0 0 0 0
0 0 0 0 0 0 0 0 0 0 0 0 0 0 0 0 0 0 0 0 0 0 0 0 0 0 0 0 0 4 5 1 4 27 2 0 0 0 0 0 0 0 0 0
0 0 0 0 0 0 0 0 0 0 0 0 0 0 0 0 0 0 0 0 0 0 0 5 1 0 0 0 0 1 3 1 2 4 5 1 0 0 0 0 0 0 0 0
5 0 0 0 0 0 0 0 0 0 0 0 0 0 0 0 0 0 0 0 0 0 0 4 5 4 0 4 0 62 50 11 6 43 51 5 12 5 0 0 0 0 0 0
0 0 0 0 0 0 0 0 0 0 0 0 0 0 1 0 0 0 3 0 0 0 0 0 5 96 79 8 69 5 100 100 100 94 6 28 79 78 5 0 0 0 0 0
0 0 0 0 0 0 0 0 0 0 0 0 0 0 0 4 2 5 5 6 5 5 2 0 0 5 79 98 82 6 35 8 57 20 90 100 100 32 13 0 0 0 0 0
2 0 0 0 0 0 0 0 0 0 0 0 0 0 0 0 0 2 5 53 62 49 5 5 5 0 0 7 41 98 88 100 100 100 100 97 11 87 3 0 0 0 0 0
2 0 0 0 0 0 0 0 0 0 0 0 0 0 0 0 0 0 0 5 72 100 90 17 5 6 2 0 0 26 23 58 57 61 86 100 56 5 5 0 0 0 0 0
5 5 5 5 1 1 0 5 4 0 0 0 0 0 0 0 0 0 0 0 5 93 100 100 100 48 29 7 0 0 3 5 28 61 54 9 5 5 5 1 0 0 0 0
5 5 5 5 5 5 5 5 5 4 1 0 0 0 0 0 0 0 0 0 0 5 98 100 100 100 100 53 37 3 0 0 3 5 18 75 50 6 13 34 2 0 0 0
5 9 32 37 82 70 26 20 5 5 5 0 0 0 0 0 0 0 0 0 0 0 2 96 100 100 100 100 94 12 5 2 0 0 4 22 53 67 27 39 80 15 0 0
44 36 100 19 28 32 5 5 5 5 5 0 0 0 0 0 0 0 0 0 0 0 0 0 71 100 100 100 100 100 46 5 5 2 0 0 5 45 6 40 58 84 10 5
17 32 50 65 80 50 23 5 5 5 5 5 1 0 0 0 0 0 0 0 0 0 0 0 5 28 100 100 100 100 100 99 12 5 5 3 0 0 4 5 8 60 82 58
100 100 100 91 23 5 34 64 75 17 6 5 5 0 0 0 0 0 0 0 0 0 0 0 4 77 99 100 100 100 100 100 100 66 5 4 5 17 0 0 3 23 16 69
100 100 100 100 95 12 94 100 98 14 5 1 0 0 0 0 0 0 5 5 4 5 4 4 5 5 87 100 100 100 100 100 100 100 81 15 5 3 43 28 4 0 1 12
72 56 76 72 6 5 5 5 5 5 5 5 0 0 0 3 5 5 33 44 77 64 21 17 19 15 5 5 97 100 100 100 100 100 100 98 87 93 22 5 84 20 5 0
100 54 6 5 5 5 26 9 2 0 0 0 1 3 5 5 44 99 100 100 100 100 100 100 100 99 93 94 10 94 100 100 100 100 100 100 100 100 100 98 19 5 70 34
93 23 6 5 5 5 5 4 3 3 5 5 7 8 56 83 100 99 100 100 100 100 94 82 44 9 5 5 49 94 35 100 100 100 100 100 100 100 100 100 100 95 27 16
5 5 5 4 5 4 0 1 5 5 16 80 100 99 100 100 100 100 87 100 100 100 97 92 87 40 5 5 5 5 96 93 99 100 100 100 100 100 100 100 100 100 100 100
5 3 3 0 3 0 0 5 2 9 91 100 85 87 99 100 100 100 100 100 100 100 90 68 74 6 30 5 5 11 6 15 100 100 100 100 100 100 100 100 100 100 100 100
2 5 5 36 90 5 17 5 53 97 52 94 100 97 100 86 67 78 95 80 68 51 61 5 5 5 5 5 5 5 14 62 68 23 99 100 100 100 100 100 100 100 100 100
0 1 4 37 86 43 53 89 96 88 44 59 74 100 100 100 100 100 99 100 77 51 5 5 5 5 5 7 5 17 46 65 30 49 6 30 100 100 100 100 100 100 100 100
0 0 0 2 1 5 13 15 6 1 0 0 0 2 47 85 36 5 5 4 0 4 5 5 8 76 95 5 16 84 76 86 98 63 57 90 42 94 100 100 100 100 100 100
0 0 0 0 0 0 0 0 0 1 4 15 7 5 5 17 16 5 4 1 5 5 5 5 93 85 5 12 46 53 40 96 94 91 87 85 83 60 94 80 89 100 100 100
0 0 0 4 0 0 0 0 0 0 2 4 26 5 5 66 99 25 4 5 5 5 5 5 35 34 5 44 93 16 50 76 84 88 98 98 86 100 100 100 100 100 100 100
3 2 5 2 0 0 0 0 0 0 0 1 5 5 7 100 100 71 30 5 5 11 10 5 22 66 10 76 99 100 100 100 96 88 100 88 90 100 100 97 82 85 100 100